Hourly Weather Junagadh

Today, 9 March, Tuesday

Time Temperature Precipitation Wind Pressure Humidity
00:00 +23°C° 0 mm 1 mps 752 mmHg 61%
01:00 +23°C° 0 mm 1 mps 751 mmHg 61%
02:00 +23°C° 0 mm 1 mps 751 mmHg 62%
03:00 +22°C° 0 mm 1 mps 751 mmHg 62%
04:00 +21°C° 0 mm 2 mps 751 mmHg 63%
05:00 +22°C° 0 mm 1 mps 751 mmHg 63%
06:00 +24°C° 0 mm 1 mps 752 mmHg 57%
07:00 +25°C° 0 mm 2 mps 753 mmHg 51%
08:00 +27°C° 0 mm 2 mps 753 mmHg 45%
09:00 +30°C° 0 mm 2 mps 754 mmHg 35%
10:00 +35°C° 0 mm 2 mps 754 mmHg 24%
11:00 +38°C° 0 mm 2 mps 754 mmHg 13%
12:00 +39°C° 0 mm 2 mps 753 mmHg 12%
13:00 +40°C° 0 mm 2 mps 752 mmHg 11%
14:00 +41°C° 0 mm 2 mps 751 mmHg 10%
15:00 +41°C° 0 mm 4 mps 751 mmHg 12%
16:00 +40°C° 0 mm 5 mps 751 mmHg 15%
17:00 +39°C° 0 mm 6 mps 751 mmHg 17%
18:00 +35°C° 0 mm 5 mps 751 mmHg 28%
19:00 +30°C° 0 mm 4 mps 752 mmHg 38%
20:00 +27°C° 0 mm 2 mps 752 mmHg 48%
21:00 +26°C° 0 mm 2 mps 752 mmHg 54%
22:00 +25°C° 0 mm 1 mps 752 mmHg 61%
23:00 +24°C° 0 mm 1 mps 752 mmHg 67%

Tomorrow, 10 March, Wednesday

Time Temperature Precipitation Wind Pressure Humidity
00:00 +23°C° 0 mm 1 mps 752 mmHg 70%
01:00 +23°C° 0 mm 1 mps 752 mmHg 73%
02:00 +22°C° 0 mm 1 mps 751 mmHg 76%
03:00 +22°C° 0 mm 1 mps 751 mmHg 77%
04:00 +21°C° 0 mm 1 mps 751 mmHg 79%
05:00 +21°C° 0 mm 1 mps 751 mmHg 80%
06:00 +22°C° 0 mm 1 mps 752 mmHg 74%
07:00 +24°C° 0 mm 1 mps 753 mmHg 68%
08:00 +25°C° 0 mm 1 mps 753 mmHg 62%
09:00 +28°C° 0 mm 2 mps 753 mmHg 48%
10:00 +32°C° 0 mm 2 mps 754 mmHg 33%
11:00 +36°C° 0 mm 2 mps 754 mmHg 19%
12:00 +38°C° 0 mm 2 mps 753 mmHg 17%
13:00 +39°C° 0 mm 2 mps 752 mmHg 14%
14:00 +40°C° 0 mm 2 mps 751 mmHg 11%
15:00 +40°C° 0 mm 4 mps 751 mmHg 15%
16:00 +39°C° 0 mm 5 mps 750 mmHg 19%
17:00 +38°C° 0 mm 7 mps 750 mmHg 23%
18:00 +33°C° 0 mm 6 mps 750 mmHg 35%
19:00 +29°C° 0 mm 4 mps 751 mmHg 47%
20:00 +26°C° 0 mm 2 mps 751 mmHg 59%
21:00 +25°C° 0 mm 2 mps 751 mmHg 66%
22:00 +24°C° 0 mm 2 mps 751 mmHg 72%
23:00 +23°C° 0 mm 2 mps 752 mmHg 78%

Day after tomorrow, 11 March, Thursday

Time Temperature Precipitation Wind Pressure Humidity
00:00 +21°C° 0 mm 2 mps 751 mmHg 80%
01:00 +22°C° 0 mm 1 mps 751 mmHg 82%
02:00 +21°C° 0 mm 1 mps 751 mmHg 85%
03:00 +21°C° 0 mm 1 mps 751 mmHg 87%
04:00 +21°C° 0 mm 1 mps 751 mmHg 89%
05:00 +21°C° 0 mm 1 mps 751 mmHg 91%
06:00 +22°C° 0 mm 1 mps 751 mmHg 86%
07:00 +23°C° 0 mm 1 mps 752 mmHg 82%
08:00 +24°C° 0 mm 1 mps 752 mmHg 78%
09:00 +27°C° 0 mm 1 mps 753 mmHg 62%
10:00 +30°C° 0 mm 2 mps 753 mmHg 45%
11:00 +34°C° 0 mm 2 mps 753 mmHg 29%
12:00 +35°C° 0 mm 3 mps 752 mmHg 24%
13:00 +37°C° 0 mm 3 mps 751 mmHg 19%
14:00 +40°C° 0 mm 4 mps 751 mmHg 15%
15:00 +37°C° 0 mm 5 mps 750 mmHg 19%
16:00 +36°C° 0 mm 6 mps 750 mmHg 23%
17:00 +35°C° 0 mm 7 mps 750 mmHg 28%
18:00 +32°C° 0 mm 6 mps 750 mmHg 41%
19:00 +28°C° 0 mm 4 mps 750 mmHg 54%
20:00 +25°C° 0 mm 3 mps 751 mmHg 67%
21:00 +24°C° 0 mm 3 mps 751 mmHg 73%
22:00 +23°C° 0 mm 2 mps 751 mmHg 79%
23:00 +21°C° 0 mm 2 mps 752 mmHg 86%

12 March, Friday

Time Temperature Precipitation Wind Pressure Humidity
00:00 +22°C° 0 mm 1 mps 751 mmHg 87%
01:00 +21°C° 0 mm 1 mps 751 mmHg 88%
02:00 +21°C° 0 mm 1 mps 751 mmHg 90%
03:00 +21°C° 0 mm 1 mps 751 mmHg 90%
04:00 +20°C° 0 mm 2 mps 751 mmHg 90%
05:00 +20°C° 0 mm 2 mps 751 mmHg 90%
06:00 +21°C° 0 mm 2 mps 752 mmHg 83%
07:00 +24°C° 0 mm 1 mps 752 mmHg 75%
08:00 +25°C° 0 mm 1 mps 753 mmHg 67%
09:00 +28°C° 0 mm 2 mps 753 mmHg 52%
10:00 +31°C° 0 mm 2 mps 754 mmHg 37%
11:00 +36°C° 0 mm 3 mps 754 mmHg 22%
12:00 +37°C° 0 mm 3 mps 753 mmHg 19%
13:00 +38°C° 0 mm 3 mps 753 mmHg 15%
14:00 +40°C° 0 mm 3 mps 752 mmHg 11%
15:00 +40°C° 0 mm 4 mps 751 mmHg 13%
16:00 +40°C° 0 mm 5 mps 751 mmHg 15%
17:00 +39°C° 0 mm 6 mps 751 mmHg 17%
18:00 +35°C° 0 mm 4 mps 751 mmHg 24%
19:00 +30°C° 0 mm 3 mps 752 mmHg 32%
20:00 +27°C° 0 mm 2 mps 752 mmHg 39%
21:00 +26°C° 0 mm 2 mps 752 mmHg 42%
22:00 +25°C° 0 mm 1 mps 753 mmHg 45%
23:00 +24°C° 0 mm 1 mps 753 mmHg 48%

13 March, Saturday

Time Temperature Precipitation Wind Pressure Humidity
00:00 +23°C° 0 mm 1 mps 753 mmHg 50%
01:00 +23°C° 0 mm 1 mps 752 mmHg 52%
02:00 +21°C° 0 mm 2 mps 752 mmHg 55%
03:00 +21°C° 0 mm 2 mps 752 mmHg 57%
04:00 +21°C° 0 mm 2 mps 752 mmHg 59%
05:00 +21°C° 0 mm 2 mps 752 mmHg 62%
06:00 +22°C° 0 mm 3 mps 753 mmHg 59%
07:00 +25°C° 0 mm 3 mps 754 mmHg 57%
08:00 +26°C° 0 mm 4 mps 754 mmHg 55%
09:00 +30°C° 0 mm 4 mps 755 mmHg 42%
10:00 +34°C° 0 mm 3 mps 755 mmHg 29%
11:00 +37°C° 0 mm 3 mps 755 mmHg 17%
12:00 +39°C° 0 mm 2 mps 754 mmHg 15%
13:00 +40°C° 0 mm 2 mps 753 mmHg 13%
14:00 +41°C° 0 mm 1 mps 752 mmHg 10%
15:00 +42°C° 0 mm 3 mps 752 mmHg 12%
16:00 +41°C° 0 mm 4 mps 751 mmHg 14%
17:00 +40°C° 0 mm 6 mps 751 mmHg 15%
18:00 +36°C° 0 mm 5 mps 751 mmHg 21%
19:00 +32°C° 0 mm 4 mps 751 mmHg 27%
20:00 +28°C° 0 mm 3 mps 752 mmHg 34%
21:00 +27°C° 0 mm 2 mps 752 mmHg 37%
22:00 +26°C° 0 mm 2 mps 752 mmHg 40%
23:00 +25°C° 0 mm 2 mps 752 mmHg 43%

14 March, Sunday

Time Temperature Precipitation Wind Pressure Humidity
00:00 +24°C° 0 mm 2 mps 752 mmHg 47%
01:00 +24°C° 0 mm 2 mps 752 mmHg 50%
02:00 +22°C° 0 mm 3 mps 751 mmHg 54%
03:00 +22°C° 0 mm 3 mps 751 mmHg 56%
04:00 +22°C° 0 mm 3 mps 751 mmHg 59%
05:00 +22°C° 0 mm 3 mps 751 mmHg 61%
06:00 +23°C° 0 mm 4 mps 752 mmHg 56%
07:00 +26°C° 0 mm 4 mps 752 mmHg 51%
08:00 +27°C° 0 mm 4 mps 753 mmHg 46%
09:00 +30°C° 0 mm 4 mps 753 mmHg 36%
10:00 +34°C° 0 mm 5 mps 753 mmHg 25%
11:00 +39°C° 0 mm 5 mps 754 mmHg 15%
12:00 +40°C° 0 mm 5 mps 753 mmHg 13%
13:00 +41°C° 0 mm 4 mps 752 mmHg 11%
14:00 +42°C° 0 mm 4 mps 751 mmHg 10%
15:00 +42°C° 0 mm 4 mps 751 mmHg 10%
16:00 +41°C° 0 mm 5 mps 750 mmHg 10%
17:00 +41°C° 0 mm 5 mps 750 mmHg 11%
18:00 +37°C° 0 mm 5 mps 750 mmHg 15%
19:00 +33°C° 0 mm 5 mps 751 mmHg 19%
20:00 +29°C° 0 mm 5 mps 751 mmHg 24%
21:00 +28°C° 0 mm 4 mps 751 mmHg 32%
22:00 +26°C° 0 mm 4 mps 751 mmHg 39%
23:00 +25°C° 0 mm 3 mps 751 mmHg 47%
Show more

We Need Your Consent

Meteoprog and our Service Providers may store and access personal data such as cookies, device identifiers or other similar technologies on your device and process such data to personalise content and ads, as well as provide social media features and to analyse the traffic.

  • Store and/or access information on your device

    Cookies, device identifiers or other information can be stored or accessed on your device for the purposes indicated above.

  • Personalised ads and content, ad and content measurement, audience insights, and products development

    Ads and content can be personalised based on a profile. More data can be added to better personalise ads and content. Ad and content performance can be measured. Insights about the audience who saw the ads and content can be derived. Such data can be used to develop or improve user’s experience, systems and software.

By clicking ‘I Agree’ you will allow the use of indicated cookies, device identifiers, web beacons or other similar technologies. Your settings can be changed in the browser on your device.

For certain purposes, legitimate interests may be relied on, rather than consent. You can read more about this in our Privacy and Cookie Policy.